CAPE
2 3 1 1 0 0 0 0 0 0 0 0 0 0 0 0 0 0 0 0 0 0 0 0 0 0 0 0 0 0 0 0 0 0 0 0 0 0 0 0 0 0 0 0 196
6 4 2 0 0 0 0 0 0 0 0 0 0 0 0 0 0 0 0 0 0 0 0 0 0 0 0 0 0 0 0 0 0 0 0 0 0 0 0 0 0 0 0 0 186
7 2 7 0 0 0 0 0 0 0 0 0 0 0 0 0 0 0 0 0 0 0 0 0 0 0 0 0 0 0 0 0 0 0 0 0 0 0 0 0 0 0 0 0 90
4 5 2 0 0 0 0 0 0 0 0 0 0 0 0 0 0 0 0 0 0 0 0 0 0 0 0 0 0 0 0 0 0 0 0 0 0 0 0 0 0 0 0 0 0
3 2 0 0 0 0 0 0 0 0 0 0 0 0 0 0 0 0 0 0 0 0 0 0 0 0 0 0 0 0 0 0 0 0 0 0 0 0 0 0 0 0 0 0 0
2 0 0 0 0 0 0 0 0 0 0 0 0 0 0 0 0 0 0 0 0 0 0 0 0 0 0 0 0 0 0 0 0 0 0 0 0 0 0 0 0 0 0 0 0
0 0 0 0 0 0 0 0 0 0 0 0 0 0 0 0 0 0 0 0 0 0 0 0 0 0 0 0 0 0 0 0 0 0 0 0 0 0 0 0 0 0 0 0 0
0 0 0 0 0 0 0 0 0 0 0 0 0 0 0 0 0 0 0 0 0 0 0 0 0 0 0 0 0 0 0 0 0 0 0 0 0 0 0 0 0 0 0 0 0
0 0 0 0 0 0 0 0 0 0 0 0 0 0 0 0 0 0 0 0 0 0 0 0 0 0 0 0 0 0 0 0 0 0 0 0 0 0 0 0 0 0 0 0 0
0 0 0 0 0 0 0 0 0 0 0 0 0 0 0 0 0 0 0 0 0 0 0 0 0 0 0 0 0 0 0 0 0 0 0 0 0 0 0 0 0 0 0 0 0
4 0 0 0 0 0 0 0 0 0 0 0 0 0 0 0 0 0 0 0 0 0 0 0 0 0 0 0 0 0 0 0 0 0 0 0 0 0 0 0 0 0 0 0 0
7 4 4 2 0 0 0 0 0 0 0 0 0 0 0 0 0 0 0 0 0 0 0 0 0 0 0 0 0 0 0 0 0 0 0 0 0 0 0 0 0 0 0 0 0
0 0 0 2 2 0 0 0 0 0 0 0 0 0 0 0 0 0 0 0 0 0 0 0 0 0 0 0 0 0 0 0 0 0 0 0 0 0 0 0 0 0 0 0 0
0 0 0 0 0 0 0 0 0 0 0 0 0 0 0 0 0 0 0 0 0 0 0 0 0 0 0 0 0 0 0 0 0 0 0 0 0 0 0 0 0 0 0 0 0
2 0 0 0 0 0 0 0 0 0 0 0 0 0 0 0 0 0 0 0 0 0 0 0 0 0 0 0 0 0 0 0 0 0 0 0 0 0 0 0 0 0 0 0 0
3 0 0 1 0 0 0 0 0 0 0 0 0 0 0 0 0 0 0 0 0 0 0 0 0 0 0 0 0 0 0 0 0 0 0 0 0 0 0 0 0 0 0 0 0
0 0 0 0 22 0 0 1 0 0 0 0 0 0 0 0 0 0 0 0 0 0 0 0 0 0 0 0 0 0 0 0 0 0 0 0 0 0 0 0 0 0 0 0 0
0 0 0 0 0 0 11 15 0 0 0 0 0 0 0 0 0 0 0 0 0 0 0 0 0 0 0 0 0 0 0 0 0 0 0 0 0 0 0 0 0 0 0 0 0
0 0 0 0 0 0 4 8 0 0 0 0 0 0 0 0 0 0 0 0 0 0 0 0 0 0 0 0 0 0 0 0 0 0 0 0 0 0 0 0 0 0 0 0 0
0 0 0 0 0 0 4 0 0 0 0 0 0 0 0 0 0 0 0 0 0 0 0 0 0 0 0 0 0 0 0 0 0 0 0 0 0 0 0 0 0 0 0 0 0
0 0 0 0 3 4 0 0 0 0 0 0 0 0 0 0 0 0 0 0 0 0 0 0 0 0 0 0 0 0 0 0 0 0 0 0 0 0 0 0 0 0 0 0 0
0 0 0 0 26 4 0 1 1 1 0 0 0 0 0 0 0 0 0 0 0 0 0 0 0 0 0 0 0 0 0 0 0 0 0 0 0 0 0 0 0 0 0 0 0
0 0 0 0 0 1 2 0 0 0 0 0 0 0 0 0 0 0 0 0 0 0 0 0 0 0 0 0 0 0 0 0 0 0 0 0 0 0 0 0 0 0 0 0 0
0 0 0 0 0 0 0 1 0 1 2 5 0 0 0 0 0 0 0 0 0 0 0 0 0 0 0 0 0 0 0 0 0 0 0 0 0 0 0 0 0 0 0 0 0
0 0 0 0 0 0 0 0 0 0 0 2 2 0 0 0 0 0 1 0 0 0 0 0 0 0 0 0 0 0 0 0 0 0 0 0 0 0 0 0 0 0 0 0 0
0 0 0 0 0 0 0 0 0 0 0 0 0 0 0 0 0 0 0 0 0 0 0 0 0 0 0 0 0 0 0 0 0 0 0 0 0 0 0 0 0 0 0 0 0
0 1 0 0 0 0 0 0 0 0 0 0 0 5 5 0 0 0 9 8 13 0 0 0 0 0 0 0 0 0 0 0 0 0 0 0 0 0 0 0 0 0 0 0 0
CIN
-1 -0 -0 -0 -0 -0 -0 -0 -0 -0 -0 -0 -0 -0 -0 -0 -0 -0 -0 -0 -0 -0 -0 -0 -0 -0 -0 -0 -0 -0 -0 -0 -0 -0 -0 -0 -0 -0 -0 -0 -0 -0 -0 -0 -377
-0 -0 -0 -0 -0 -0 -0 -0 -0 -0 -0 -0 -0 -0 -0 -0 -0 -0 -0 -0 -0 -0 -0 -0 -0 -0 -0 -0 -0 -0 -0 -0 -0 -0 -0 -0 -0 -0 -0 -0 -0 -0 -0 -0 -413
-0 -1 -0 -0 -0 -0 -0 -0 -0 -0 -0 -0 -0 -0 -0 -0 -0 -0 -0 -0 -0 -0 -0 -0 -0 -0 -0 -0 -0 -0 -0 -0 -0 -0 -0 -0 -0 -0 -0 -0 -0 -0 -0 -0 -497
-1 -1 -0 -0 -0 -0 -0 -0 -0 -0 -0 -0 -0 -0 -0 -0 -0 -0 -0 -0 -0 -0 -0 -0 -0 -0 -0 -0 -0 -0 -0 -0 -0 -0 -0 -0 -0 -0 -0 -0 -0 -0 -0 -0 -0
-1 -1 -0 -0 -0 -0 -0 -0 -0 -0 -0 -0 -0 -0 -0 -0 -0 -0 -0 -0 -0 -0 -0 -0 -0 -0 -0 -0 -0 -0 -0 -0 -0 -0 -0 -0 -0 -0 -0 -0 -0 -0 -0 -0 -0
-2 -0 -0 -0 -0 -0 -0 -0 -0 -0 -0 -0 -0 -0 -0 -0 -0 -0 -0 -0 -0 -0 -0 -0 -0 -0 -0 -0 -0 -0 -0 -0 -0 -0 -0 -0 -0 -0 -0 -0 -0 -0 -0 -0 -0
-0 -0 -0 -0 -0 -0 -0 -0 -0 -0 -0 -0 -0 -0 -0 -0 -0 -0 -0 -0 -0 -0 -0 -0 -0 -0 -0 -0 -0 -0 -0 -0 -0 -0 -0 -0 -0 -0 -0 -0 -0 -0 -0 -0 -0
-0 -0 -0 -0 -0 -0 -0 -0 -0 -0 -0 -0 -0 -0 -0 -0 -0 -0 -0 -0 -0 -0 -0 -0 -0 -0 -0 -0 -0 -0 -0 -0 -0 -0 -0 -0 -0 -0 -0 -0 -0 -0 -0 -0 -0
-0 -0 -0 -0 -0 -0 -0 -0 -0 -0 -0 -0 -0 -0 -0 -0 -0 -0 -0 -0 -0 -0 -0 -0 -0 -0 -0 -0 -0 -0 -0 -0 -0 -0 -0 -0 -0 -0 -0 -0 -0 -0 -0 -0 -0
-0 -0 -0 -0 -0 -0 -0 -0 -0 -0 -0 -0 -0 -0 -0 -0 -0 -0 -0 -0 -0 -0 -0 -0 -0 -0 -0 -0 -0 -0 -0 -0 -0 -0 -0 -0 -0 -0 -0 -0 -0 -0 -0 -0 -0
-2 -0 -0 -0 -0 -0 -0 -0 -0 -0 -0 -0 -0 -0 -0 -0 -0 -0 -0 -0 -0 -0 -0 -0 -0 -0 -0 -0 -0 -0 -0 -0 -0 -0 -0 -0 -0 -0 -0 -0 -0 -0 -0 -0 -0
-2 -1 -0 -0 -0 -0 -0 -0 -0 -0 -0 -0 -0 -0 -0 -0 -0 -0 -0 -0 -0 -0 -0 -0 -0 -0 -0 -0 -0 -0 -0 -0 -0 -0 -0 -0 -0 -0 -0 -0 -0 -0 -0 -0 -0
-0 -0 -0 -0 -0 -0 -0 -0 -0 -0 -0 -0 -0 -0 -0 -0 -0 -0 -0 -0 -0 -0 -0 -0 -0 -0 -0 -0 -0 -0 -0 -0 -0 -0 -0 -0 -0 -0 -0 -0 -0 -0 -0 -0 -0
-0 -0 -0 -0 -0 -0 -0 -0 -0 -0 -0 -0 -0 -0 -0 -0 -0 -0 -0 -0 -0 -0 -0 -0 -0 -0 -0 -0 -0 -0 -0 -0 -0 -0 -0 -0 -0 -0 -0 -0 -0 -0 -0 -0 -0
-0 -0 -0 -2 -0 -4 -0 -0 -0 -0 -0 -0 -0 -0 -0 -0 -0 -0 -0 -0 -0 -0 -0 -0 -0 -0 -0 -0 -0 -0 -0 -0 -0 -0 -0 -0 -0 -0 -0 -0 -0 -0 -0 -0 -0
-0 -0 -0 -8 -12 -0 -0 -0 -0 -0 -0 -0 -0 -0 -0 -0 -0 -0 -0 -0 -0 -0 -0 -0 -0 -0 -0 -0 -0 -0 -0 -0 -0 -0 -0 -0 -0 -0 -0 -0 -0 -0 -0 -0 -0
-0 -0 -0 -0 -19 -0 -0 -56 -0 -0 -0 -0 -0 -0 -0 -0 -0 -0 -0 -0 -0 -0 -0 -0 -0 -0 -0 -0 -0 -0 -0 -0 -0 -0 -0 -0 -0 -0 -0 -0 -0 -0 -0 -0 -0
-0 -0 -0 -0 -0 -10 -93 -21 -0 -0 -0 -0 -0 -0 -0 -0 -0 -0 -0 -0 -0 -0 -0 -0 -0 -0 -0 -0 -0 -0 -0 -0 -0 -0 -0 -0 -0 -0 -0 -0 -0 -0 -0 -0 -0
-0 -0 -0 -0 -0 -0 -11 -0 -0 -0 -0 -0 -0 -0 -0 -0 -0 -0 -0 -0 -0 -0 -0 -0 -0 -0 -0 -0 -0 -0 -0 -0 -0 -0 -0 -0 -0 -0 -0 -0 -0 -0 -0 -0 -0
-0 -0 -0 -0 -0 -2 -0 -0 -0 -0 -0 -0 -0 -0 -0 -0 -0 -0 -0 -0 -0 -0 -0 -0 -0 -0 -0 -0 -0 -0 -0 -0 -0 -0 -0 -0 -0 -0 -0 -0 -0 -0 -0 -0 -0
-0 -0 -0 -0 -19 -1 -0 -0 -0 -0 -0 -0 -0 -0 -0 -0 -0 -0 -0 -0 -0 -0 -0 -0 -0 -0 -0 -0 -0 -0 -0 -0 -0 -0 -0 -0 -0 -0 -0 -0 -0 -0 -0 -0 -0
-0 -0 -0 -0 -1 -0 -0 -0 -0 -0 -0 -0 -0 -0 -0 -0 -0 -0 -0 -0 -0 -0 -0 -0 -0 -0 -0 -0 -0 -0 -0 -0 -0 -0 -0 -0 -0 -0 -0 -0 -0 -0 -0 -0 -0
-0 -0 -0 -0 -0 -0 -0 -0 -0 -0 -0 -0 -0 -0 -0 -0 -0 -0 -0 -0 -0 -0 -0 -0 -0 -0 -0 -0 -0 -0 -0 -0 -0 -0 -0 -0 -0 -0 -0 -0 -0 -0 -0 -0 -0
-0 -0 -0 -0 -0 -0 -0 -0 -0 -1 -0 -0 -0 -0 -0 -0 -0 -0 -0 -0 -0 -0 -0 -0 -0 -0 -0 -0 -0 -0 -0 -0 -0 -0 -0 -0 -0 -0 -0 -0 -0 -0 -0 -0 -0
-0 -0 -0 -0 -0 -0 -0 -0 -0 -0 -0 -0 -0 -0 -0 -0 -0 -0 -0 -0 -0 -0 -0 -0 -0 -0 -0 -0 -0 -0 -0 -0 -0 -0 -0 -0 -0 -0 -0 -0 -0 -0 -0 -0 -0
-0 -0 -0 -0 -0 -0 -0 -0 -0 -0 -0 -0 -0 -0 -0 -0 -0 -0 -0 -0 -0 -0 -0 -0 -0 -0 -0 -0 -0 -0 -0 -0 -0 -0 -0 -0 -0 -0 -0 -0 -0 -0 -0 -0 -0
-0 -3 -0 -0 -0 -0 -0 -0 -0 -0 -0 -0 -6 -37 -31 -0 -0 -0 -19 -7 -14 -17 -11 -0 -0 -0 -0 -0 -0 -0 -0 -0 -0 -0 -0 -0 -0 -0 -0 -0 -0 -0 -0 -0 -0
Wind_Speed
24 22 22 22 22 21 24 25 25 23 24 23 23 23 22 21 21 23 24 21 20 20 20 20 20 20 20 20 20 18 14 9 15 13 18 15 21 21 18 19 20 19 17 17 20
26 22 23 24 23 23 23 23 25 23 23 22 21 21 22 22 23 24 21 20 20 20 22 22 20 19 20 20 20 18 13 14 17 16 14 6 16 16 19 18 19 19 18 15 19
25 23 23 23 25 23 22 23 25 23 22 22 21 20 20 20 22 23 21 20 21 20 20 19 17 19 19 20 19 19 15 12 13 11 10 7 16 11 10 18 18 18 17 16 18
24 23 23 21 22 23 23 22 25 22 22 21 21 19 19 20 24 21 20 20 20 20 19 18 18 17 17 17 17 16 15 14 11 13 11 11 14 17 6 10 18 16 14 16 18
24 23 23 22 21 21 23 24 24 23 22 20 20 19 18 24 23 18 20 19 19 20 20 20 18 17 17 17 15 16 15 14 13 14 14 14 17 19 23 24 17 11 8 14 17
23 24 23 23 23 23 24 22 23 24 22 21 19 18 21 26 18 16 18 16 20 19 19 20 20 17 15 16 16 16 14 14 15 16 15 16 18 17 18 20 15 13 7 11 14
25 24 25 24 24 24 23 23 22 21 22 21 20 19 22 23 18 17 16 16 18 18 19 18 16 17 14 14 15 13 15 18 17 16 17 15 21 21 22 22 16 9 5 6 14
25 25 25 26 25 25 24 23 23 22 22 21 20 20 24 19 18 17 15 16 16 14 15 15 15 14 15 12 16 17 18 20 18 15 16 14 22 17 18 16 22 19 21 6 11
26 25 25 25 24 24 23 23 23 22 21 20 20 22 25 19 20 18 17 16 15 15 14 14 15 16 15 15 19 19 22 21 21 14 16 16 19 16 15 19 24 22 20 18 6
27 25 26 24 24 23 22 22 20 19 19 18 20 24 23 25 21 18 16 14 17 15 15 18 18 20 19 18 26 23 23 22 22 18 18 19 23 25 25 27 29 30 29 29 26
25 25 24 24 22 22 20 19 21 25 26 27 26 24 20 19 19 20 17 16 15 17 21 20 24 26 21 20 20 18 20 21 20 18 20 25 29 31 32 32 33 35 35 37 38
23 24 25 23 22 21 22 26 25 22 28 24 22 22 18 19 23 22 19 21 21 24 19 21 31 23 19 19 18 18 20 22 22 20 22 27 33 33 34 37 35 36 36 33 33
20 22 22 22 23 23 25 25 20 19 24 28 25 26 22 20 23 24 20 21 24 24 24 25 23 19 20 21 22 24 24 24 25 22 23 29 33 30 24 24 26 27 29 32 33
19 21 19 17 22 23 24 21 18 19 28 31 30 27 26 23 26 22 21 22 25 27 24 27 23 21 23 23 20 24 21 21 23 26 29 24 33 28 27 28 27 29 27 23 22
20 20 20 18 20 25 21 19 16 19 41 27 29 22 22 29 22 27 22 24 27 25 25 28 26 24 26 24 20 24 19 22 22 25 28 27 30 27 24 25 20 18 17 18 19
21 19 20 21 19 19 17 17 17 28 44 29 25 31 28 29 25 23 26 21 21 26 26 27 22 23 24 21 21 15 18 21 22 25 33 29 27 29 21 16 16 16 16 17 17
20 26 21 21 24 17 16 18 28 40 27 31 31 30 32 32 28 28 31 30 30 31 33 29 29 25 20 23 21 21 21 29 32 30 33 24 26 27 19 19 17 14 15 16 17
22 22 22 20 20 20 16 25 37 34 32 23 26 26 34 30 33 31 31 34 32 30 30 35 38 28 23 24 25 24 24 29 35 33 31 24 30 24 18 11 10 15 18 19 19
21 22 25 24 22 22 25 34 39 31 30 27 23 29 32 32 32 33 35 37 34 31 34 34 37 25 24 22 20 26 29 22 28 30 36 31 27 23 13 11 14 17 18 19 20
21 25 21 21 22 23 32 36 37 29 27 28 33 30 35 33 34 34 35 35 36 33 29 30 33 28 26 23 25 27 19 29 29 38 42 35 32 28 16 15 16 18 20 21 23
22 27 24 21 22 28 40 36 33 34 28 32 33 31 30 32 31 33 34 32 32 34 32 30 33 30 26 33 31 27 30 27 26 31 38 41 35 22 14 13 17 20 23 25 27
24 31 23 20 28 30 31 31 28 30 28 30 30 30 33 31 33 34 34 30 27 28 35 32 31 39 35 29 28 29 31 29 34 35 34 36 37 13 12 15 20 25 27 27 28
28 29 22 25 33 32 29 28 27 28 32 30 34 32 29 30 33 32 30 26 26 26 27 28 35 38 36 34 30 33 31 31 30 29 37 38 36 19 19 22 25 29 29 28 27
25 33 29 30 30 32 31 32 33 26 25 25 28 28 29 32 30 32 31 28 24 24 25 25 30 38 45 41 32 37 34 31 32 39 37 38 31 24 29 32 33 31 29 30 32
25 31 28 36 41 35 33 31 32 31 31 27 27 24 28 32 33 33 30 29 28 26 25 25 34 30 28 27 28 29 30 30 34 35 36 35 36 31 35 39 34 32 32 34 36
28 29 28 33 33 39 36 39 38 35 31 33 33 28 28 30 28 24 22 25 28 26 26 23 28 28 30 28 28 32 30 30 31 32 36 38 45 33 32 28 34 35 35 38 39
26 23 25 32 34 37 41 39 38 33 34 33 32 28 27 27 21 21 22 23 23 22 24 24 26 28 35 27 28 40 37 33 32 31 33 41 40 32 34 33 34 34 33 36 38
Wind_Direction
237 237 233 230 228 229 224 221 223 228 230 233 231 229 233 233 227 223 224 226 228 226 225 223 223 225 226 228 228 231 254 280 238 256 220 89 152 175 195 140 161 161 147 181 118
234 236 232 229 227 228 226 230 225 230 230 233 238 236 235 230 225 225 231 228 229 228 223 222 224 227 230 232 233 241 262 261 244 250 256 355 240 101 149 147 169 173 188 124 118
234 235 232 230 225 228 232 230 226 232 233 234 239 239 239 232 226 228 230 229 229 229 228 228 228 231 235 237 242 244 262 273 273 288 289 326 269 317 65 154 162 165 140 115 129
233 233 233 234 230 228 229 234 230 236 235 238 240 244 239 231 224 232 233 231 231 231 229 230 231 236 241 244 249 258 263 271 289 283 309 313 304 285 31 229 282 158 130 126 141
233 232 233 234 236 235 232 232 231 234 238 244 244 244 236 228 233 239 234 236 234 233 230 232 233 241 244 251 256 263 266 277 287 292 300 307 298 292 254 215 298 347 96 137 150
232 232 233 234 234 235 234 240 241 236 236 242 248 244 236 227 244 244 238 239 236 236 234 237 240 248 254 255 259 267 273 282 286 292 304 304 298 303 290 283 303 315 93 144 159
231 233 232 233 234 234 238 238 242 246 242 243 247 243 237 235 245 247 242 241 243 241 238 244 248 252 258 259 268 279 275 281 286 292 298 310 292 288 282 280 306 326 352 146 176
232 233 234 234 235 237 238 240 243 243 246 245 250 243 237 247 247 245 246 244 247 252 249 252 256 258 263 274 273 273 280 275 288 293 300 305 289 304 303 300 286 297 288 320 179
233 234 236 238 237 238 240 241 245 246 246 249 245 242 237 248 241 244 247 243 246 252 256 258 259 258 263 262 268 274 273 275 283 294 297 295 295 302 306 300 287 292 298 303 310
234 235 235 239 240 240 242 242 244 247 248 246 248 240 243 238 241 245 250 247 247 244 252 254 258 255 259 259 260 268 271 276 280 291 290 290 286 286 289 289 284 281 281 283 290
233 234 237 239 242 243 240 237 238 239 236 236 241 244 244 244 246 245 247 247 249 249 246 252 251 250 256 261 273 277 277 280 287 297 291 286 284 282 282 283 281 276 274 267 263
232 234 236 239 242 245 239 237 239 245 236 248 248 247 250 244 240 241 243 243 244 243 248 252 250 259 267 265 270 276 277 280 287 293 291 289 281 282 283 276 285 281 278 281 285
236 235 237 239 240 243 238 240 250 251 245 243 245 243 246 246 246 236 242 246 245 245 247 250 263 259 261 262 263 269 273 278 281 290 294 291 285 290 299 299 297 295 293 291 287
240 239 242 238 241 238 239 245 252 253 245 245 241 248 243 247 246 249 247 248 249 245 247 255 261 261 257 261 265 267 276 281 283 285 282 295 282 292 298 296 298 296 297 304 309
244 243 244 239 248 233 240 245 250 249 239 248 238 253 243 239 243 242 249 250 244 247 249 252 255 257 257 261 264 268 279 281 285 284 285 286 286 288 299 301 314 323 317 314 318
255 250 248 240 246 244 245 243 243 239 239 244 242 238 235 243 248 245 244 256 256 250 256 256 268 262 262 266 267 273 278 285 287 286 279 283 283 287 295 304 317 324 329 328 328
257 249 251 246 236 246 239 230 233 237 247 244 242 239 236 240 242 243 238 240 244 245 248 254 257 265 268 261 268 269 270 273 275 274 275 287 285 284 298 299 308 324 331 335 337
257 248 247 247 245 244 234 228 238 244 240 252 245 239 238 239 244 243 242 243 249 251 250 249 253 256 261 263 262 261 265 266 270 272 277 286 281 291 309 312 319 320 318 324 328
260 254 251 245 247 242 230 231 239 246 243 242 245 241 243 242 246 243 244 245 246 245 251 253 256 264 262 265 261 263 262 273 277 280 276 277 284 295 307 306 317 322 325 326 327
247 242 247 248 244 238 231 240 241 250 252 243 244 246 244 241 245 244 244 252 250 247 256 258 260 265 261 264 267 266 263 267 271 270 271 276 278 281 282 287 303 318 319 318 319
249 243 249 251 244 243 241 242 248 248 253 246 246 246 249 245 245 246 251 257 254 250 251 256 259 264 262 257 256 261 261 269 272 271 272 275 280 286 273 287 303 313 315 314 315
249 240 254 249 236 243 242 241 249 246 254 252 252 252 250 248 246 247 249 256 263 255 246 251 261 258 260 268 265 264 261 258 263 268 272 276 276 286 276 291 308 311 313 314 316
246 246 258 245 239 242 245 245 251 246 248 254 250 252 255 249 250 250 252 260 265 255 250 246 254 255 261 264 263 260 262 260 266 273 268 270 278 271 281 293 307 309 311 314 317
252 244 248 243 248 244 243 244 245 251 250 256 253 253 251 250 256 251 252 258 264 260 263 253 256 255 255 263 262 259 259 262 261 263 267 268 275 267 279 288 300 309 312 312 313
255 249 250 243 241 244 245 248 245 246 250 250 257 255 250 253 253 254 255 254 258 262 263 258 253 256 264 266 267 262 258 258 259 263 265 272 273 276 283 289 296 303 306 308 310
252 252 253 250 250 242 246 246 245 247 246 246 252 253 252 254 254 251 253 253 255 257 257 261 262 258 259 266 267 265 264 264 265 268 271 276 276 284 289 294 297 299 302 304 305
255 260 259 252 249 244 245 247 248 250 252 252 249 251 249 252 257 262 258 255 258 253 253 255 256 261 260 266 270 267 263 264 269 271 274 275 282 287 288 291 294 298 301 304 306